Date String (YYYY-MM-DD hh:mm:ss) UTC,Instrument flags,Ambient pressure (hPa),Sample flow (lpm),Bypass flow (lpm),Sample temperature (°C),Ambient temperature (°C),ASC tube jacket temperature (°C),LED temperature (°C),Box temperature (°C),Sample RH (%),Mass concentration (μg/m³),Mass concentration (μg/m³)
DateTimeUTC,F1_M11,P_M11,Q1_M11,Q2_M11,T1_M11,T2_M11,T3_M11,T4_M11,T5_M11,U1_M11,X0_M11,X2_M11
2021-08-19 06:00:00,,0823.4,5.00,0.00,29.6,28.5,00.0,38.5,31.4,25.7,0033.19,0017.70
2021-08-19 06:01:00,,0823.4,4.99,0.00,29.5,26.9,00.0,38.5,31.0,25.8,0032.07,0017.67
2021-08-19 06:02:00,,0823.4,5.01,0.00,29.4,26.4,00.0,38.5,30.8,26.1,0032.13,0017.60
2021-08-19 06:03:00,,0823.4,4.99,0.00,29.3,26.7,00.0,38.5,30.9,26.2,0032.08,0017.52
2021-08-19 06:04:00,,0823.5,5.00,0.00,29.3,27.0,00.0,38.4,31.0,26.4,0031.72,0017.46
2021-08-19 06:05:00,,0823.5,5.00,0.00,29.3,27.4,00.0,38.4,31.0,26.4,0031.71,0017.49
2021-08-19 06:06:00,,0823.5,5.00,0.00,29.3,27.7,00.0,38.4,31.1,26.4,0030.61,0017.43
2021-08-19 06:07:00,,0823.5,4.99,0.00,29.4,27.9,00.0,38.4,31.2,26.4,0030.58,0017.40
2021-08-19 06:08:00,,0823.5,5.01,0.00,29.4,28.1,00.0,38.4,31.2,26.4,0030.18,0017.40
2021-08-19 06:09:00,,0823.5,4.99,0.00,29.5,28.3,00.0,38.5,31.3,26.5,0029.28,0017.42
2021-08-19 06:10:00,,0823.5,5.01,0.00,29.5,28.4,00.0,38.5,31.4,26.5,0028.34,0017.47
2021-08-19 06:11:00,,0823.5,5.00,0.00,29.5,28.6,00.0,38.5,31.4,26.5,0028.30,0017.55
2021-08-19 06:12:00,,0823.4,4.98,0.00,29.6,28.7,00.0,38.5,31.5,26.4,0028.38,0017.59
2021-08-19 06:13:00,,0823.4,5.02,0.00,29.6,28.8,00.0,38.6,31.5,26.3,0027.72,0017.57
2021-08-19 06:14:00,,0823.4,5.00,0.00,29.7,28.3,00.0,38.6,31.4,26.3,0027.36,0017.54
2021-08-19 06:15:00,,0823.4,4.99,0.00,29.5,26.5,00.0,38.6,30.9,26.4,0027.36,0017.57
2021-08-19 06:16:00,,0823.3,4.99,0.00,29.3,25.5,00.0,38.5,30.6,26.5,0027.91,0017.56
2021-08-19 06:17:00,,0823.4,5.02,0.00,29.3,25.7,00.0,38.5,30.6,26.8,0029.04,0017.60
2021-08-19 06:18:00,,0823.4,4.99,0.00,29.2,26.2,00.0,38.4,30.7,26.9,0030.50,0017.65
2021-08-19 06:19:00,,0823.4,5.00,0.00,29.2,26.6,00.0,38.4,30.8,26.9,0030.51,0017.66
2021-08-19 06:20:00,,0823.4,5.00,0.00,29.2,27.0,00.0,38.4,30.9,27.0,0030.50,0017.64
2021-08-19 06:21:00,,0823.4,5.00,0.00,29.2,27.4,00.0,38.4,31.0,26.9,0030.31,0017.58
2021-08-19 06:22:00,,0823.4,5.00,0.00,29.2,27.6,00.0,38.4,31.1,26.9,0029.94,0017.47
2021-08-19 06:23:00,,0823.5,5.00,0.00,29.3,27.9,00.0,38.4,31.1,26.8,0029.58,0017.39
2021-08-19 06:24:00,,0823.6,5.00,0.00,29.3,28.1,00.0,38.4,31.2,26.8,0029.99,0017.42
2021-08-19 06:25:00,,0823.6,5.01,0.00,29.4,28.2,00.0,38.4,31.2,26.8,0030.54,0017.45
2021-08-19 06:26:00,,0823.6,4.99,0.00,29.4,28.4,00.0,38.4,31.3,26.6,0031.31,0017.41
2021-08-19 06:27:00,,0823.6,5.00,0.00,29.4,28.5,00.0,38.4,31.4,26.5,0030.01,0017.32
2021-08-19 06:28:00,,0823.6,5.01,0.00,29.5,28.6,00.0,38.5,31.4,26.4,0028.60,0017.25
2021-08-19 06:29:00,,0823.6,4.99,0.00,29.5,28.7,00.0,38.5,31.4,26.2,0026.54,0017.13
2021-08-19 06:30:00,,0823.7,5.01,0.00,29.6,28.8,00.0,38.5,31.5,26.0,0025.78,0017.04
2021-08-19 06:31:00,,0823.7,5.00,0.00,29.6,28.9,00.0,38.5,31.6,25.9,0024.92,0016.94
2021-08-19 06:32:00,,0823.7,5.00,0.00,29.7,28.6,00.0,38.6,31.5,25.9,0025.27,0016.92
2021-08-19 06:33:00,,0823.7,5.00,0.00,29.6,26.9,00.0,38.6,31.0,26.0,0025.20,0016.91
2021-08-19 06:34:00,,0823.6,5.01,0.00,29.4,26.4,00.0,38.6,30.9,26.2,0024.99,0016.86
2021-08-19 06:35:00,,0823.6,5.00,0.00,29.4,26.6,00.0,38.5,30.9,26.6,0024.54,0016.82
2021-08-19 06:36:00,,0823.6,5.00,0.00,29.4,27.0,00.0,38.5,31.0,26.9,0024.07,0016.79
2021-08-19 06:37:00,,0823.7,5.00,0.00,29.4,27.4,00.0,38.5,31.1,26.9,0023.39,0016.76
2021-08-19 06:38:00,,0823.7,5.01,0.00,29.4,27.7,00.0,38.5,31.2,26.8,0023.87,0016.75
2021-08-19 06:39:00,,0823.7,4.99,0.00,29.4,27.9,00.0,38.5,31.2,26.7,0023.76,0016.73
2021-08-19 06:40:00,,0823.7,5.01,0.00,29.5,28.1,00.0,38.5,31.3,26.7,0023.77,0016.76
2021-08-19 06:41:00,,0823.7,4.99,0.00,29.5,28.3,00.0,38.5,31.4,26.6,0024.00,0016.79
2021-08-19 06:42:00,,0823.6,5.00,0.00,29.5,28.5,00.0,38.5,31.4,26.6,0024.84,0016.86
2021-08-19 06:43:00,,0823.6,4.99,0.00,29.6,28.6,00.0,38.5,31.5,26.6,0024.63,0016.93
2021-08-19 06:44:00,,0823.7,5.01,0.00,29.6,28.7,00.0,38.6,31.5,26.6,0025.09,0016.99
2021-08-19 06:45:00,,0823.6,4.99,0.00,29.7,28.8,00.0,38.6,31.6,26.5,0025.30,0017.05
2021-08-19 06:46:00,,0823.7,5.00,0.00,29.7,28.3,00.0,38.6,31.4,26.4,0025.79,0017.03
2021-08-19 06:47:00,,0823.7,5.00,0.00,29.6,26.4,00.0,38.6,30.9,26.6,0026.00,0017.05
2021-08-19 06:48:00,,0823.7,4.99,0.00,29.4,25.4,00.0,38.6,30.6,26.7,0026.19,0017.15
2021-08-19 06:49:00,,0823.7,5.01,0.00,29.3,25.6,00.0,38.5,30.7,26.7,0026.11,0017.22
2021-08-19 06:50:00,,0823.7,4.99,0.00,29.2,26.1,00.0,38.5,30.7,25.7,0026.96,0017.26
2021-08-19 06:51:00,,0823.7,5.01,0.00,29.2,26.6,00.0,38.4,30.8,26.2,0027.48,0017.24
2021-08-19 06:52:00,,0823.7,4.99,0.00,29.2,27.0,00.0,38.4,30.9,26.9,0028.66,0017.28
2021-08-19 06:53:00,,0823.7,5.01,0.00,29.2,27.3,00.0,38.4,31.0,27.1,0028.46,0017.25
2021-08-19 06:54:00,,0823.6,5.01,0.00,29.3,27.6,00.0,38.4,31.1,27.7,0028.66,0017.25
2021-08-19 06:55:00,,0823.7,4.99,0.00,29.3,27.9,00.0,38.4,31.2,27.5,0028.92,0017.30
2021-08-19 06:56:00,,0823.7,5.01,0.00,29.3,28.1,00.0,38.4,31.2,27.0,0029.78,0017.32
2021-08-19 06:57:00,,0823.7,4.99,0.00,29.4,28.2,00.0,38.4,31.2,26.9,0029.25,0017.34
2021-08-19 06:58:00,,0823.7,4.99,0.00,29.4,28.4,00.0,38.4,31.3,26.1,0028.91,0017.28
2021-08-19 06:59:00,,0823.7,5.00,0.00,29.5,28.5,00.0,38.4,31.4,26.1,0028.68,0017.23
